Time,TemperatureF,DewpointF,PressureIn,WindDirection,WindDirectionDegrees,WindSpeedMPH,WindSpeedGustMPH,Humidity,HourlyPrecipIn,Conditions,Clouds,dailyrainin,SoftwareType,DateUTC
2013-01-10 00:11:00,34.0,33.0,-100.00,WNW,298,6.0,16.0,95,0.00,,,0.00,,2013-01-10 08:11:00,
2013-01-10 00:22:00,34.0,33.0,-100.00,WNW,298,6.0,16.0,95,0.00,,,0.00,,2013-01-10 08:22:00,
2013-01-10 00:32:00,34.0,33.0,-100.00,WNW,298,6.0,16.0,95,0.00,,,0.00,,2013-01-10 08:32:00,
2013-01-10 00:42:00,34.0,33.0,-100.00,WNW,298,6.0,16.0,95,0.00,,,0.00,,2013-01-10 08:42:00,
2013-01-10 00:52:00,34.0,33.0,-100.00,WNW,298,6.0,16.0,95,0.00,,,0.00,,2013-01-10 08:52:00,
2013-01-10 01:12:00,33.0,32.0,-100.00,WNW,295,6.0,11.0,97,0.00,,,0.00,,2013-01-10 09:12:00,
2013-01-10 01:22:00,33.0,32.0,-100.00,WNW,295,6.0,11.0,97,0.00,,,0.00,,2013-01-10 09:22:00,
2013-01-10 01:32:00,33.0,32.0,-100.00,WNW,295,6.0,11.0,97,0.00,,,0.00,,2013-01-10 09:32:00,
2013-01-10 01:42:00,33.0,32.0,-100.00,WNW,295,6.0,11.0,97,0.00,,,0.00,,2013-01-10 09:42:00,
2013-01-10 01:52:00,33.0,32.0,-100.00,WNW,295,6.0,11.0,97,0.00,,,0.00,,2013-01-10 09:52:00,
2013-01-10 02:12:00,32.0,32.0,-100.00,WNW,299,6.0,10.0,98,0.03,,,0.03,,2013-01-10 10:12:00,
2013-01-10 02:22:00,32.0,32.0,-100.00,WNW,299,6.0,10.0,98,0.03,,,0.03,,2013-01-10 10:22:00,
2013-01-10 02:32:00,32.0,32.0,-100.00,WNW,299,6.0,10.0,98,0.03,,,0.03,,2013-01-10 10:32:00,
2013-01-10 02:42:00,32.0,32.0,-100.00,WNW,299,6.0,10.0,98,0.03,,,0.03,,2013-01-10 10:42:00,
2013-01-10 02:52:00,32.0,32.0,-100.00,WNW,299,6.0,10.0,98,0.03,,,0.03,,2013-01-10 10:52:00,
2013-01-10 03:12:00,32.0,32.0,-100.00,WNW,298,7.0,15.0,98,0.02,,,0.05,,2013-01-10 11:12:00,
2013-01-10 03:22:00,32.0,32.0,-100.00,WNW,298,7.0,15.0,98,0.02,,,0.05,,2013-01-10 11:22:00,
2013-01-10 03:32:00,32.0,32.0,-100.00,WNW,298,7.0,15.0,98,0.02,,,0.05,,2013-01-10 11:32:00,
2013-01-10 03:42:00,32.0,32.0,-100.00,WNW,298,7.0,15.0,98,0.02,,,0.05,,2013-01-10 11:42:00,
2013-01-10 03:52:00,32.0,32.0,-100.00,WNW,298,7.0,15.0,98,0.02,,,0.05,,2013-01-10 11:52:00,
2013-01-10 04:12:00,27.0,27.0,-100.00,NW,314,0.0,12.0,98,0.00,,,0.05,,2013-01-10 12:12:00,
2013-01-10 04:22:00,27.0,27.0,-100.00,NW,314,0.0,12.0,98,0.00,,,0.05,,2013-01-10 12:22:00,
2013-01-10 04:32:00,27.0,27.0,-100.00,NW,314,0.0,12.0,98,0.00,,,0.05,,2013-01-10 12:32:00,
2013-01-10 04:42:00,27.0,27.0,-100.00,NW,314,0.0,12.0,98,0.00,,,0.05,,2013-01-10 12:42:00,
2013-01-10 04:52:00,27.0,27.0,-100.00,NW,314,0.0,12.0,98,0.00,,,0.05,,2013-01-10 12:52:00,
2013-01-10 06:22:00,22.0,21.0,-100.00,WNW,302,0.0,0.0,94,-99.99,,,0.05,,2013-01-10 14:22:00,
2013-01-10 06:32:00,22.0,21.0,-100.00,WNW,302,0.0,0.0,94,-99.99,,,0.05,,2013-01-10 14:32:00,
2013-01-10 06:43:00,22.0,21.0,-100.00,WNW,302,0.0,0.0,94,-99.99,,,0.05,,2013-01-10 14:43:00,
2013-01-10 06:52:00,22.0,21.0,-100.00,WNW,302,0.0,0.0,94,-99.99,,,0.05,,2013-01-10 14:52:00,
2013-01-10 07:22:00,21.0,19.0,-100.00,WNW,296,0.0,0.0,93,0.00,,,0.05,,2013-01-10 15:22:00,
2013-01-10 07:32:00,21.0,19.0,-100.00,WNW,296,0.0,0.0,93,0.00,,,0.05,,2013-01-10 15:32:00,
2013-01-10 07:43:00,21.0,19.0,-100.00,WNW,296,0.0,0.0,93,0.00,,,0.05,,2013-01-10 15:43:00,
2013-01-10 07:52:00,21.0,19.0,-100.00,WNW,296,0.0,0.0,93,0.00,,,0.05,,2013-01-10 15:52:00,
2013-01-10 08:12:00,20.0,18.0,-100.00,WNW,294,0.0,0.0,92,0.00,,,0.05,,2013-01-10 16:12:00,
2013-01-10 08:22:00,20.0,18.0,-100.00,WNW,294,0.0,0.0,92,0.00,,,0.05,,2013-01-10 16:22:00,
2013-01-10 08:33:00,20.0,18.0,-100.00,WNW,294,0.0,0.0,92,0.00,,,0.05,,2013-01-10 16:33:00,
2013-01-10 08:42:00,20.0,18.0,-100.00,WNW,294,0.0,0.0,92,0.00,,,0.05,,2013-01-10 16:42:00,
2013-01-10 08:52:00,20.0,18.0,-100.00,WNW,294,0.0,0.0,92,0.00,,,0.05,,2013-01-10 16:52:00,
2013-01-10 09:12:00,20.0,18.0,-100.00,WNW,299,0.0,0.0,92,0.00,,,0.05,,2013-01-10 17:12:00,
2013-01-10 09:22:00,20.0,18.0,-100.00,WNW,299,0.0,0.0,92,0.00,,,0.05,,2013-01-10 17:22:00,
2013-01-10 09:33:00,20.0,18.0,-100.00,WNW,299,0.0,0.0,92,0.00,,,0.05,,2013-01-10 17:33:00,
2013-01-10 09:42:00,20.0,18.0,-100.00,WNW,299,0.0,0.0,92,0.00,,,0.05,,2013-01-10 17:42:00,
2013-01-10 09:52:00,20.0,18.0,-100.00,WNW,299,0.0,0.0,92,0.00,,,0.05,,2013-01-10 17:52:00,
2013-01-10 10:12:00,20.0,18.0,-100.00,WNW,295,0.0,0.0,91,0.00,,,0.05,,2013-01-10 18:12:00,
2013-01-10 10:22:00,20.0,18.0,-100.00,WNW,295,0.0,0.0,91,0.00,,,0.05,,2013-01-10 18:22:00,
2013-01-10 10:33:00,20.0,18.0,-100.00,WNW,295,0.0,0.0,91,0.00,,,0.05,,2013-01-10 18:33:00,
2013-01-10 10:43:00,20.0,18.0,-100.00,WNW,295,0.0,0.0,91,0.00,,,0.05,,2013-01-10 18:43:00,
2013-01-10 10:52:00,20.0,18.0,-100.00,WNW,295,0.0,0.0,91,0.00,,,0.05,,2013-01-10 18:52:00,
2013-01-10 11:12:00,21.0,19.0,-100.00,WNW,300,0.0,0.0,91,0.00,,,0.05,,2013-01-10 19:12:00,
2013-01-10 11:23:00,21.0,19.0,-100.00,WNW,300,0.0,0.0,91,0.00,,,0.05,,2013-01-10 19:23:00,
2013-01-10 11:32:00,21.0,19.0,-100.00,WNW,300,0.0,0.0,91,0.00,,,0.05,,2013-01-10 19:32:00,
2013-01-10 11:42:00,21.0,19.0,-100.00,WNW,300,0.0,0.0,91,0.00,,,0.05,,2013-01-10 19:42:00,
2013-01-10 11:52:00,21.0,19.0,-100.00,WNW,300,0.0,0.0,91,0.00,,,0.05,,2013-01-10 19:52:00,
2013-01-10 12:12:00,20.0,18.0,-100.00,WNW,288,0.0,0.0,91,0.00,,,0.05,,2013-01-10 20:12:00,
2013-01-10 12:23:00,20.0,18.0,-100.00,WNW,288,0.0,0.0,91,0.00,,,0.05,,2013-01-10 20:23:00,
2013-01-10 12:32:00,20.0,18.0,-100.00,WNW,288,0.0,0.0,91,0.00,,,0.05,,2013-01-10 20:32:00,
2013-01-10 12:42:00,20.0,18.0,-100.00,WNW,288,0.0,0.0,91,0.00,,,0.05,,2013-01-10 20:42:00,
2013-01-10 12:52:00,20.0,18.0,-100.00,WNW,288,0.0,0.0,91,0.00,,,0.05,,2013-01-10 20:52:00,
2013-01-10 13:12:00,20.0,18.0,-100.00,WNW,300,0.0,0.0,91,0.00,,,0.05,,2013-01-10 21:12:00,
2013-01-10 13:23:00,20.0,18.0,-100.00,WNW,300,0.0,0.0,91,0.00,,,0.05,,2013-01-10 21:23:00,
2013-01-10 13:33:00,20.0,18.0,-100.00,WNW,300,0.0,0.0,91,0.00,,,0.05,,2013-01-10 21:33:00,
2013-01-10 13:42:00,20.0,18.0,-100.00,WNW,300,0.0,0.0,91,0.00,,,0.05,,2013-01-10 21:42:00,
2013-01-10 13:52:00,20.0,18.0,-100.00,WNW,300,0.0,0.0,91,0.00,,,0.05,,2013-01-10 21:52:00,
2013-01-10 14:12:00,20.0,18.0,-100.00,WNW,298,0.0,0.0,91,0.00,,,0.05,,2013-01-10 22:12:00,
2013-01-10 14:24:00,20.0,18.0,-100.00,WNW,298,0.0,0.0,91,0.00,,,0.05,,2013-01-10 22:24:00,
2013-01-10 14:32:00,20.0,18.0,-100.00,WNW,298,0.0,0.0,91,0.00,,,0.05,,2013-01-10 22:32:00,
2013-01-10 14:43:00,20.0,18.0,-100.00,WNW,298,0.0,0.0,91,0.00,,,0.05,,2013-01-10 22:43:00,
2013-01-10 15:22:00,20.0,18.0,-100.00,WNW,300,0.0,0.0,91,0.00,,,0.05,,2013-01-10 23:22:00,
2013-01-10 15:33:00,20.0,18.0,-100.00,WNW,300,0.0,0.0,91,0.00,,,0.05,,2013-01-10 23:33:00,
2013-01-10 15:42:00,20.0,18.0,-100.00,WNW,300,0.0,0.0,91,0.00,,,0.05,,2013-01-10 23:42:00,
2013-01-10 15:52:00,20.0,18.0,-100.00,WNW,300,0.0,0.0,91,0.00,,,0.05,,2013-01-10 23:52:00,
2013-01-10 16:12:00,20.0,18.0,-100.00,WNW,298,0.0,0.0,91,0.00,,,0.05,,2013-01-11 00:12:00,
2013-01-10 16:23:00,20.0,18.0,-100.00,WNW,298,0.0,0.0,91,0.00,,,0.05,,2013-01-11 00:23:00,
2013-01-10 16:32:00,20.0,18.0,-100.00,WNW,298,0.0,0.0,91,0.00,,,0.05,,2013-01-11 00:32:00,
2013-01-10 16:42:00,20.0,18.0,-100.00,WNW,298,0.0,0.0,91,0.00,,,0.05,,2013-01-11 00:42:00,
2013-01-10 16:52:00,20.0,18.0,-100.00,WNW,298,0.0,0.0,91,0.00,,,0.05,,2013-01-11 00:52:00,
2013-01-10 17:12:00,20.0,18.0,-100.00,WNW,295,0.0,0.0,91,0.00,,,0.05,,2013-01-11 01:12:00,
2013-01-10 17:22:00,20.0,18.0,-100.00,WNW,295,0.0,0.0,91,0.00,,,0.05,,2013-01-11 01:22:00,
2013-01-10 17:33:00,20.0,18.0,-100.00,WNW,295,0.0,0.0,91,0.00,,,0.05,,2013-01-11 01:33:00,
2013-01-10 17:42:00,20.0,18.0,-100.00,WNW,295,0.0,0.0,91,0.00,,,0.05,,2013-01-11 01:42:00,
2013-01-10 17:52:00,20.0,18.0,-100.00,WNW,295,0.0,0.0,91,0.00,,,0.05,,2013-01-11 01:52:00,
2013-01-10 18:23:00,20.0,18.0,-100.00,WNW,300,0.0,0.0,91,0.00,,,0.05,,2013-01-11 02:23:00,
2013-01-10 18:33:00,20.0,18.0,-100.00,WNW,300,0.0,0.0,91,0.00,,,0.05,,2013-01-11 02:33:00,
2013-01-10 18:43:00,20.0,18.0,-100.00,WNW,300,0.0,0.0,91,0.00,,,0.05,,2013-01-11 02:43:00,
2013-01-10 18:52:00,20.0,18.0,-100.00,WNW,300,0.0,0.0,91,0.00,,,0.05,,2013-01-11 02:52:00,
2013-01-10 19:22:00,20.0,18.0,-100.00,WNW,282,0.0,0.0,91,0.00,,,0.05,,2013-01-11 03:22:00,
2013-01-10 19:33:00,20.0,18.0,-100.00,WNW,282,0.0,0.0,91,0.00,,,0.05,,2013-01-11 03:33:00,
2013-01-10 19:42:00,20.0,18.0,-100.00,WNW,282,0.0,0.0,91,0.00,,,0.05,,2013-01-11 03:42:00,
2013-01-10 19:52:00,20.0,18.0,-100.00,WNW,282,0.0,0.0,91,0.00,,,0.05,,2013-01-11 03:52:00,
2013-01-10 20:12:00,20.0,18.0,-100.00,NW,306,0.0,0.0,91,0.00,,,0.05,,2013-01-11 04:12:00,
2013-01-10 20:22:00,20.0,18.0,-100.00,NW,306,0.0,0.0,91,0.00,,,0.05,,2013-01-11 04:22:00,
2013-01-10 20:32:00,20.0,18.0,-100.00,NW,306,0.0,0.0,91,0.00,,,0.05,,2013-01-11 04:32:00,
2013-01-10 20:42:00,20.0,18.0,-100.00,NW,306,0.0,0.0,91,0.00,,,0.05,,2013-01-11 04:42:00,
2013-01-10 20:52:00,20.0,18.0,-100.00,NW,306,0.0,0.0,91,0.00,,,0.05,,2013-01-11 04:52:00,
2013-01-10 21:12:00,20.0,18.0,-100.00,NW,304,0.0,0.0,91,0.00,,,0.05,,2013-01-11 05:12:00,
2013-01-10 21:22:00,20.0,18.0,-100.00,NW,304,0.0,0.0,91,0.00,,,0.05,,2013-01-11 05:22:00,
2013-01-10 21:33:00,20.0,18.0,-100.00,NW,304,0.0,0.0,91,0.00,,,0.05,,2013-01-11 05:33:00,
2013-01-10 21:42:00,20.0,18.0,-100.00,NW,304,0.0,0.0,91,0.00,,,0.05,,2013-01-11 05:42:00,
2013-01-10 21:52:00,20.0,18.0,-100.00,NW,304,0.0,0.0,91,0.00,,,0.05,,2013-01-11 05:52:00,
2013-01-10 22:12:00,20.0,18.0,-100.00,WNW,299,0.0,0.0,91,0.00,,,0.05,,2013-01-11 06:12:00,
2013-01-10 22:22:00,20.0,18.0,-100.00,WNW,299,0.0,0.0,91,0.00,,,0.05,,2013-01-11 06:22:00,
2013-01-10 22:32:00,20.0,18.0,-100.00,WNW,299,0.0,0.0,91,0.00,,,0.05,,2013-01-11 06:32:00,
2013-01-10 22:42:00,20.0,18.0,-100.00,WNW,299,0.0,0.0,91,0.00,,,0.05,,2013-01-11 06:42:00,
2013-01-10 22:52:00,20.0,18.0,-100.00,WNW,299,0.0,0.0,91,0.00,,,0.05,,2013-01-11 06:52:00,
2013-01-10 23:12:00,19.0,17.0,-100.00,NW,307,0.0,0.0,91,0.00,,,0.05,,2013-01-11 07:12:00,
2013-01-10 23:22:00,19.0,17.0,-100.00,NW,307,0.0,0.0,91,0.00,,,0.05,,2013-01-11 07:22:00,
2013-01-10 23:32:00,19.0,17.0,-100.00,NW,307,0.0,0.0,91,0.00,,,0.05,,2013-01-11 07:32:00,
2013-01-10 23:42:00,19.0,17.0,-100.00,NW,307,0.0,0.0,91,0.00,,,0.05,,2013-01-11 07:42:00,
2013-01-10 23:52:00,19.0,17.0,-100.00,NW,307,0.0,0.0,91,0.00,,,0.05,,2013-01-11 07:52:00,